Time,TemperatureF,DewpointF,PressureIn,WindDirection,WindDirectionDegrees,WindSpeedMPH,WindSpeedGustMPH,Humidity,HourlyPrecipIn,Conditions,Clouds,dailyrainin,SoftwareType,DateUTC
2014-08-28 00:10:00,76.1,71.6,29.88,East,95,3.0,10.0,86,0.00,,,0.00,Wunderground v.1.15,2014-08-28 05:10:00,
2014-08-28 00:20:00,76.0,71.5,29.88,ENE,68,2.0,10.0,86,0.00,,,0.00,Wunderground v.1.15,2014-08-28 05:20:00,
2014-08-28 00:25:00,76.0,71.5,29.88,ENE,66,2.0,10.0,86,0.00,,,0.00,Wunderground v.1.15,2014-08-28 05:25:00,
2014-08-28 00:35:00,75.9,71.4,29.88,ENE,72,2.0,10.0,86,0.00,,,0.00,Wunderground v.1.15,2014-08-28 05:35:00,
2014-08-28 00:40:00,75.9,71.4,29.88,ENE,72,3.0,10.0,86,0.00,,,0.00,Wunderground v.1.15,2014-08-28 05:40:00,
2014-08-28 00:45:00,75.8,71.7,29.88,East,89,3.0,10.0,87,0.00,,,0.00,Wunderground v.1.15,2014-08-28 05:45:00,
2014-08-28 00:55:00,75.7,71.6,29.87,ENE,67,2.0,10.0,87,0.00,,,0.00,Wunderground v.1.15,2014-08-28 05:55:00,
2014-08-28 01:05:00,75.6,71.5,29.87,ENE,69,2.0,10.0,87,0.00,,,0.00,Wunderground v.1.15,2014-08-28 06:05:00,
2014-08-28 01:10:00,75.6,71.5,29.87,ESE,106,2.0,10.0,87,0.00,,,0.00,Wunderground v.1.15,2014-08-28 06:10:00,
2014-08-28 01:20:00,75.5,71.7,29.86,ESE,113,2.0,2.0,88,0.00,,,0.00,Wunderground v.1.15,2014-08-28 06:20:00,
2014-08-28 01:25:00,75.5,71.7,29.87,ENE,68,2.0,10.0,88,0.00,,,0.00,Wunderground v.1.15,2014-08-28 06:25:00,
2014-08-28 01:35:00,75.5,71.7,29.86,ENE,70,3.0,10.0,88,0.00,,,0.00,Wunderground v.1.15,2014-08-28 06:35:00,
2014-08-28 01:40:00,75.5,72.0,29.85,East,79,3.0,3.0,89,0.00,,,0.00,Wunderground v.1.15,2014-08-28 06:40:00,
2014-08-28 01:45:00,75.4,71.9,29.85,ENE,74,3.0,10.0,89,0.00,,,0.00,Wunderground v.1.15,2014-08-28 06:45:00,
2014-08-28 01:50:00,75.5,72.0,29.85,ENE,75,2.0,10.0,89,0.00,,,0.00,Wunderground v.1.15,2014-08-28 06:50:00,
2014-08-28 01:55:00,75.4,71.9,29.85,NE,55,3.0,10.0,89,0.00,,,0.00,Wunderground v.1.15,2014-08-28 06:55:00,
2014-08-28 02:05:00,75.4,71.9,29.84,ENE,70,2.0,10.0,89,0.00,,,0.00,Wunderground v.1.15,2014-08-28 07:05:00,
2014-08-28 02:10:00,75.3,71.8,29.84,East,82,2.0,2.0,89,0.00,,,0.00,Wunderground v.1.15,2014-08-28 07:10:00,
2014-08-28 02:15:00,75.3,71.8,29.84,ENE,75,2.0,3.0,89,0.00,,,0.00,Wunderground v.1.15,2014-08-28 07:15:00,
2014-08-28 02:20:00,75.3,72.2,29.84,East,91,2.0,10.0,90,0.00,,,0.00,Wunderground v.1.15,2014-08-28 07:20:00,
2014-08-28 02:30:00,75.2,72.1,29.84,ENE,77,2.0,2.0,90,0.00,,,0.00,Wunderground v.1.15,2014-08-28 07:30:00,
2014-08-28 02:40:00,75.2,72.1,29.84,ENE,78,2.0,2.0,90,0.00,,,0.00,Wunderground v.1.15,2014-08-28 07:40:00,
2014-08-28 02:45:00,75.1,72.0,29.83,East,91,2.0,10.0,90,0.00,,,0.00,Wunderground v.1.15,2014-08-28 07:45:00,
2014-08-28 02:50:00,75.1,72.0,29.83,East,90,1.0,1.0,90,0.00,,,0.00,Wunderground v.1.15,2014-08-28 07:50:00,
2014-08-28 02:55:00,75.0,71.9,29.83,East,86,1.0,2.0,90,0.00,,,0.00,Wunderground v.1.15,2014-08-28 07:55:00,
2014-08-28 03:05:00,74.9,71.8,29.83,ENE,72,2.0,10.0,90,0.00,,,0.00,Wunderground v.1.15,2014-08-28 08:05:00,
2014-08-28 03:15:00,74.8,72.0,29.83,East,87,1.0,10.0,91,0.00,,,0.00,Wunderground v.1.15,2014-08-28 08:15:00,